Wind_Speed
9 9 9 9 9 10 10 10 10 10 11 11 11 11 11 11 12 12 11 11 11 11 11 11 12 13 14 14 15 16 16 16 16 16 16 17 18 18 18 19 19 20 21
11 11 12 11 12 12 12 13 13 13 13 13 14 13 13 14 14 14 14 14 13 13 13 13 14 15 15 15 16 16 17 17 17 17 18 19 19 20 21 21 21 21 21
14 14 14 14 14 14 15 15 15 15 15 15 15 15 15 15 15 16 16 15 15 15 16 16 17 17 17 17 18 18 19 19 19 19 20 21 21 21 22 22 22 22 21
16 15 16 16 16 16 17 16 16 16 17 17 17 17 17 17 17 17 17 16 17 17 18 19 19 19 20 20 20 20 20 21 21 21 22 22 23 23 23 23 23 23 23
17 17 17 17 18 18 18 17 17 17 18 19 19 19 19 19 19 19 18 18 19 20 20 21 21 21 22 22 22 22 23 23 23 23 24 24 24 24 25 25 25 24 24
19 19 20 20 19 19 19 18 19 19 20 21 21 21 21 21 20 20 20 21 21 22 23 23 23 23 23 24 24 24 25 25 25 25 25 25 25 26 26 27 27 27 27
20 20 21 21 20 20 20 20 20 21 22 22 22 22 22 22 22 23 23 22 23 23 24 25 25 25 25 26 27 27 27 27 27 28 28 27 28 28 28 28 29 30 29
23 22 22 22 22 21 21 21 22 23 22 22 22 23 23 23 24 25 25 24 25 25 25 26 26 27 28 28 28 28 28 29 29 29 29 29 29 29 30 30 30 31 31
24 24 23 22 22 22 22 23 23 23 23 23 23 24 24 25 25 26 25 25 26 26 26 26 27 28 29 29 29 28 29 30 31 31 31 30 31 31 32 32 32 32 31
25 25 24 24 24 24 25 25 25 25 24 24 24 24 25 25 26 26 26 26 27 27 27 27 27 28 29 29 29 30 30 31 32 33 32 33 33 33 34 34 34 34 33
26 25 25 25 25 25 25 25 25 25 25 25 25 24 24 25 26 25 25 26 27 28 28 28 28 28 29 30 30 31 31 32 33 34 34 35 35 35 35 36 36 36 36
26 26 27 26 26 26 25 26 26 26 26 25 24 24 24 25 25 25 25 26 27 27 28 28 28 29 29 30 31 32 32 33 34 35 36 37 37 37 37 37 37 37 37
26 27 28 26 26 27 27 27 26 26 26 25 25 25 25 25 26 26 27 27 28 28 29 30 30 31 31 31 31 32 33 33 35 36 36 37 37 37 37 37 38 39 39
26 27 26 26 26 27 27 25 24 24 24 24 25 25 25 25 26 27 27 28 28 28 29 29 30 31 31 31 32 32 32 33 33 34 35 36 36 37 37 37 37 38 38
27 27 27 27 26 26 26 25 24 23 23 24 24 24 25 26 26 26 27 28 28 29 29 29 29 30 30 31 32 32 33 33 34 35 35 35 36 36 36 37 37 38 37
27 27 27 27 27 25 25 25 24 24 25 25 25 25 25 26 26 27 27 28 29 29 29 28 29 30 31 32 32 33 33 34 35 36 35 36 36 36 36 37 37 37 37
27 27 26 26 26 25 25 25 24 25 25 25 25 26 26 26 26 27 27 28 29 29 29 30 31 31 32 33 33 34 34 35 35 35 36 36 36 37 37 36 37 37 37
27 26 26 25 25 25 25 25 25 25 25 25 26 26 26 26 26 27 28 28 29 30 30 31 31 32 32 33 33 34 34 34 35 35 36 36 37 37 37 36 36 36 36
26 26 25 24 25 25 25 25 25 25 25 25 26 27 27 27 27 27 27 28 29 30 30 31 31 32 32 33 34 35 35 35 35 36 36 37 37 37 37 37 36 36 37
26 26 25 25 25 25 25 25 24 25 25 25 25 26 27 27 27 28 28 29 29 29 30 31 32 32 32 33 34 35 35 35 35 36 36 37 37 37 37 37 37 37 37
26 26 25 25 25 26 26 26 26 26 26 26 27 27 27 27 28 28 29 28 28 29 30 31 31 33 34 35 35 34 34 34 35 36 36 35 36 36 36 36 36 36 36
24 25 25 26 26 27 26 26 26 26 26 27 27 27 27 28 29 29 29 29 29 30 30 30 31 32 34 34 34 34 34 34 34 33 33 33 34 35 35 34 34 34 34
25 25 25 26 27 27 28 28 27 27 27 27 27 27 28 28 28 28 29 29 30 31 31 31 31 32 32 32 32 33 33 33 33 33 33 33 33 33 32 32 32 32 33
25 25 25 26 26 26 26 27 27 26 26 26 26 27 27 27 27 28 29 30 30 30 30 30 31 31 31 31 31 32 32 32 32 32 32 32 33 32 32 32 32 32 33
24 24 25 25 25 25 25 25 26 26 25 25 25 26 26 27 28 28 29 29 29 28 29 30 30 31 31 31 31 32 31 31 31 31 31 31 32 32 31 31 31 32 31
23 23 24 24 24 24 24 24 24 24 24 24 24 25 26 27 27 28 29 29 30 30 30 30 31 31 31 31 31 31 31 31 31 31 31 31 31 31 31 30 30 29 29
Wind_Direction
297 296 297 296 292 292 293 291 287 287 287 288 289 288 286 289 292 295 288 288 288 286 286 286 288 286 284 283 282 283 284 284 282 281 282 284 282 281 280 281 280 279 279
296 297 295 292 291 292 294 292 290 287 285 288 287 289 289 290 292 293 290 289 283 280 281 283 285 286 286 285 285 285 286 287 287 285 284 283 281 279 280 281 281 280 279
298 298 296 293 292 289 291 290 289 289 287 287 286 287 288 287 288 289 288 285 281 280 279 281 281 283 284 284 285 286 285 286 285 285 283 282 281 280 280 281 280 279 278
294 296 295 291 288 287 289 288 285 285 286 285 286 286 286 284 284 285 285 285 283 283 283 282 283 282 283 284 285 285 284 284 283 282 281 281 281 280 280 280 280 280 278
292 293 291 288 287 287 287 285 283 283 284 284 286 286 285 282 282 282 282 282 283 284 284 283 283 283 284 284 285 284 284 283 280 279 280 280 281 280 279 279 279 280 280
290 290 290 288 287 286 285 283 283 283 283 283 285 286 284 283 282 282 281 281 282 282 282 283 283 283 284 285 284 284 284 284 281 280 280 279 279 279 278 279 279 279 279
286 285 287 287 287 286 284 284 285 284 283 281 284 284 283 283 283 281 280 279 280 283 283 282 282 283 283 284 285 285 286 285 283 281 279 278 278 277 277 278 279 280 279
289 288 287 287 286 285 285 286 286 285 282 281 283 284 283 283 282 281 279 279 280 282 282 282 282 282 283 285 285 284 284 285 285 284 282 281 280 279 279 278 279 279 279
287 287 287 288 285 284 284 285 286 285 283 280 281 282 281 280 280 280 279 280 281 281 282 284 284 283 283 283 284 284 284 284 284 286 284 283 282 281 281 280 279 279 278
288 287 286 287 284 283 283 283 285 286 285 283 282 280 280 282 283 281 280 281 281 281 283 283 283 283 283 282 282 284 284 285 285 285 284 284 284 283 281 281 280 278 278
290 287 285 286 286 282 281 281 282 283 284 283 283 282 283 283 283 282 283 283 282 282 284 284 284 284 284 283 284 285 286 286 286 286 286 285 283 283 284 283 281 279 278
288 289 289 287 287 284 282 283 283 281 282 282 281 281 281 282 283 283 284 286 285 283 283 285 286 286 286 286 287 288 288 288 287 286 286 285 284 284 284 283 282 280 279
289 290 289 287 287 285 285 284 282 282 280 279 280 282 283 284 285 285 284 285 286 285 285 284 285 286 288 289 289 289 290 289 288 287 286 285 285 285 284 283 283 281 280
287 289 289 287 286 284 284 283 283 283 282 282 283 283 284 285 285 285 284 284 285 286 287 286 286 286 287 289 289 290 291 291 290 289 288 288 287 287 285 284 283 280 280
284 286 287 288 288 287 285 286 286 285 284 284 284 284 283 284 286 286 285 285 285 286 288 288 289 289 290 290 290 290 291 291 291 291 291 290 290 289 288 286 283 280 279
283 285 286 287 287 285 285 285 287 288 288 287 287 287 286 286 286 288 288 289 288 288 289 288 289 291 292 292 293 293 292 292 292 291 290 290 290 290 289 286 285 283 282
285 285 284 284 284 283 284 285 287 289 288 287 288 289 289 289 290 291 292 292 292 291 290 290 291 292 293 293 293 294 294 293 293 293 293 292 292 292 291 289 287 286 284
285 283 283 282 281 283 284 285 287 289 288 288 288 289 289 289 290 292 293 293 293 293 293 291 291 291 292 294 294 294 294 294 294 294 294 293 293 293 293 291 289 288 287
283 282 282 281 281 283 285 285 286 287 288 290 290 290 289 289 290 292 294 294 294 294 293 293 292 291 291 294 295 295 295 294 293 294 294 293 293 293 293 292 290 288 288
280 281 282 280 280 281 283 284 284 286 289 291 292 292 290 290 290 291 293 294 293 293 293 293 293 292 292 294 294 294 294 294 294 294 294 293 294 293 292 291 289 288 287
281 282 283 281 280 280 281 283 283 284 286 288 290 290 290 290 290 291 292 293 294 294 294 294 293 294 294 295 296 296 296 297 296 294 295 295 295 295 293 291 291 290 289
284 284 284 283 282 281 281 282 283 283 285 288 289 289 290 291 291 292 292 293 295 296 297 297 297 297 298 298 298 297 297 298 298 298 298 298 297 298 296 294 293 292 292
286 286 285 285 283 282 281 282 281 283 286 287 288 290 291 291 291 292 293 295 297 298 298 298 299 300 300 300 300 300 300 301 302 303 303 301 301 302 299 298 296 295 294
286 287 287 287 285 284 284 286 284 285 286 287 288 289 290 289 291 293 294 296 298 298 298 299 301 301 301 301 301 302 303 303 303 303 303 303 304 303 301 300 299 299 297
289 289 289 291 289 286 287 287 287 287 288 288 288 288 289 292 294 296 298 299 301 301 302 302 302 302 302 302 302 303 304 304 303 303 304 305 305 305 304 303 302 301 299
290 290 290 291 290 290 290 288 287 288 289 289 292 294 295 296 297 299 301 302 303 303 303 303 303 303 303 304 304 304 304 304 304 304 305 305 306 306 307 305 304 304 302
Height
5880 5880 5879 5878 5877 5876 5875 5874 5873 5872 5871 5870 5870 5869 5868 5867 5866 5865 5865 5864 5863 5862 5861 5860 5859 5859 5858 5856 5855 5854 5853 5852 5851 5850 5849 5847 5846 5845 5843 5842 5841 5839 5838
5876 5876 5875 5874 5873 5872 5871 5870 5869 5868 5868 5867 5866 5865 5864 5863 5862 5861 5861 5859 5859 5858 5857 5856 5855 5854 5853 5852 5850 5849 5848 5846 5845 5844 5843 5841 5840 5839 5837 5836 5834 5833 5832
5873 5872 5871 5870 5869 5869 5867 5866 5865 5865 5863 5862 5861 5861 5860 5859 5858 5857 5856 5855 5854 5853 5853 5851 5850 5849 5848 5846 5845 5844 5842 5840 5839 5837 5836 5835 5833 5832 5831 5829 5828 5827 5825
5869 5868 5867 5866 5865 5864 5863 5861 5861 5860 5859 5858 5856 5856 5855 5854 5853 5852 5851 5850 5849 5848 5847 5846 5844 5843 5842 5840 5839 5837 5836 5834 5832 5831 5829 5828 5826 5825 5824 5823 5821 5820 5819
5864 5863 5862 5861 5859 5858 5857 5856 5855 5854 5853 5852 5851 5850 5849 5848 5847 5846 5845 5844 5843 5842 5841 5840 5839 5837 5836 5834 5832 5831 5829 5827 5825 5823 5822 5820 5819 5817 5816 5815 5814 5812 5811
5859 5858 5856 5855 5854 5853 5852 5851 5849 5848 5847 5846 5845 5844 5843 5842 5841 5840 5839 5838 5837 5836 5835 5833 5832 5830 5828 5827 5825 5823 5821 5819 5817 5815 5814 5812 5811 5809 5808 5807 5806 5805 5803
5853 5852 5851 5849 5848 5847 5846 5845 5843 5842 5841 5840 5838 5837 5836 5836 5834 5833 5832 5831 5830 5829 5827 5826 5824 5823 5821 5819 5817 5815 5813 5811 5809 5807 5805 5804 5802 5801 5799 5798 5797 5795 5794
5847 5846 5845 5843 5842 5841 5839 5838 5837 5836 5834 5833 5832 5831 5829 5828 5827 5825 5824 5823 5822 5821 5819 5818 5816 5814 5812 5811 5809 5807 5805 5802 5800 5798 5796 5794 5793 5791 5790 5789 5787 5786 5784
5841 5839 5838 5836 5835 5834 5832 5831 5830 5828 5827 5826 5824 5823 5822 5820 5819 5817 5816 5814 5813 5812 5811 5809 5807 5806 5804 5802 5800 5798 5796 5793 5791 5789 5787 5785 5783 5781 5780 5778 5776 5775 5774
5833 5831 5830 5829 5827 5826 5825 5823 5822 5820 5819 5817 5816 5814 5813 5812 5811 5809 5807 5806 5804 5803 5802 5800 5798 5796 5794 5792 5791 5789 5787 5784 5781 5779 5777 5775 5773 5771 5769 5767 5766 5764 5763
5825 5823 5822 5821 5819 5818 5817 5815 5814 5812 5811 5809 5808 5807 5805 5804 5803 5801 5799 5797 5795 5794 5792 5791 5789 5787 5785 5783 5781 5779 5777 5774 5772 5769 5767 5765 5763 5761 5759 5757 5755 5753 5752
5818 5816 5815 5813 5812 5810 5809 5807 5806 5804 5802 5801 5800 5799 5797 5796 5794 5793 5791 5789 5787 5785 5784 5782 5780 5777 5775 5773 5771 5769 5767 5764 5762 5759 5757 5754 5752 5750 5748 5745 5743 5741 5740
5811 5809 5807 5805 5804 5802 5800 5799 5798 5796 5795 5793 5792 5791 5789 5788 5786 5784 5783 5781 5779 5777 5775 5773 5770 5768 5766 5764 5761 5759 5756 5753 5751 5748 5746 5743 5741 5738 5736 5734 5731 5729 5727
5804 5802 5799 5798 5796 5794 5792 5791 5790 5788 5787 5785 5784 5783 5781 5779 5778 5776 5774 5772 5770 5768 5765 5763 5761 5759 5756 5754 5751 5748 5745 5743 5740 5737 5735 5732 5729 5726 5724 5721 5719 5716 5715
5796 5794 5792 5791 5789 5787 5785 5784 5782 5781 5779 5778 5776 5775 5773 5771 5770 5768 5765 5764 5761 5759 5757 5754 5752 5749 5747 5744 5741 5738 5735 5733 5730 5727 5724 5721 5718 5716 5713 5710 5707 5704 5703
5787 5786 5784 5783 5781 5780 5778 5776 5774 5773 5772 5770 5768 5767 5765 5763 5761 5759 5757 5755 5752 5750 5747 5745 5742 5740 5737 5735 5731 5728 5725 5722 5720 5716 5713 5710 5707 5705 5702 5698 5695 5693 5691
5779 5778 5776 5775 5773 5772 5770 5769 5768 5766 5764 5762 5760 5758 5756 5755 5753 5750 5748 5745 5743 5740 5738 5736 5733 5730 5728 5725 5722 5719 5715 5712 5709 5706 5702 5699 5696 5693 5690 5687 5684 5681 5679
5771 5769 5768 5767 5765 5764 5763 5761 5760 5758 5757 5754 5752 5750 5748 5746 5744 5742 5739 5737 5734 5731 5729 5726 5723 5721 5718 5714 5711 5708 5705 5702 5699 5695 5692 5688 5685 5682 5679 5676 5673 5670 5668
5762 5761 5759 5758 5757 5756 5755 5753 5752 5750 5748 5746 5744 5742 5740 5738 5736 5733 5730 5728 5725 5722 5719 5716 5714 5711 5708 5705 5701 5698 5695 5692 5688 5685 5681 5678 5674 5671 5668 5665 5662 5659 5657
5754 5753 5751 5751 5750 5748 5747 5745 5744 5743 5741 5739 5737 5734 5732 5730 5727 5725 5722 5719 5716 5713 5710 5707 5704 5701 5698 5695 5691 5688 5685 5681 5678 5674 5670 5667 5663 5660 5657 5653 5650 5648 5645
5746 5745 5743 5742 5741 5740 5739 5738 5736 5735 5733 5731 5729 5726 5724 5722 5719 5716 5714 5711 5707 5704 5701 5698 5695 5692 5688 5684 5681 5678 5674 5670 5666 5663 5660 5656 5653 5649 5645 5642 5639 5636 5633
5738 5737 5736 5735 5733 5732 5731 5730 5728 5726 5725 5723 5720 5718 5716 5713 5710 5708 5704 5702 5699 5696 5692 5689 5686 5683 5679 5675 5671 5668 5664 5660 5657 5653 5650 5646 5642 5638 5635 5631 5628 5625 5622
5731 5730 5728 5727 5725 5724 5723 5721 5719 5718 5716 5714 5712 5709 5707 5705 5702 5699 5696 5693 5690 5686 5683 5680 5677 5673 5669 5666 5662 5658 5655 5651 5647 5644 5640 5636 5633 5629 5625 5621 5617 5614 5610
5724 5722 5721 5719 5717 5715 5714 5713 5711 5709 5708 5706 5704 5701 5699 5696 5693 5690 5687 5684 5681 5677 5674 5671 5667 5664 5660 5657 5653 5649 5645 5642 5638 5634 5631 5627 5623 5619 5615 5611 5607 5603 5600
5716 5714 5713 5711 5709 5708 5706 5705 5703 5701 5699 5697 5695 5693 5690 5688 5685 5682 5679 5675 5671 5668 5665 5662 5659 5655 5652 5648 5644 5640 5636 5633 5629 5626 5622 5618 5614 5610 5605 5602 5598 5594 5590
5709 5707 5706 5704 5702 5700 5699 5697 5695 5693 5691 5689 5687 5685 5682 5679 5676 5673 5670 5667 5663 5660 5657 5654 5650 5647 5643 5639 5635 5631 5628 5624 5620 5617 5613 5609 5605 5601 5597 5593 5589 5585 5582